Weather History for KSMQ - February, 2012

Change the Weather History Date:

Tuesday, February 7, 2012

  Actual Average Record
Temperature  
Mean Temperature 37 °F -  
Max Temperature 50 °F 34 °F 56 °F (1938)
Min Temperature 24 °F 17 °F -8 °F (1935)
Degree Days  
Heating Degree Days 28    
Moisture  
Dew Point 23 °F    
Average Humidity 63    
Maximum Humidity 86    
Minimum Humidity 36    
Precipitation  
Precipitation 0.00 in - - ()
Sea Level Pressure  
Sea Level Pressure 30.09 in    
Wind  
Wind Speed 2 mph (NNW)    
Max Wind Speed 13 mph    
Max Gust Speed 20 mph    
Visibility 10 miles    
Events      
Averages and records for this station are not official NWS values.
T = Trace of Precipitation, MM = Missing Value Source: NWS Daily Summary

Daily Weather History Graph

Daily Weather History Graph

Search for Another Location

Airport or City:

Trip Planner

Search our weather history database for the weather conditions in past years. The results will help you decide how hot, cold, wet, or windy it might be!

Date:

Astronomy

Feb. 07, 2012 Rise Set
Actual Time 7:02 AM EST 5:23 PM EST
Civil Twilight 6:34 AM EST 5:51 PM EST
Nautical Twilight 6:01 AM EST 6:24 PM EST
Astronomical Twilight 5:29 AM EST 6:56 PM EST
Moon 5:31 PM EST (2/7) 6:30 AM EST (2/7)
Length of Visible Light 11h 17m
Length of Day
10h 20m
Full, 100% of the Moon is Illuminated
Feb 7
Full
Feb 7
Full
Feb 14
Last Quarter
Feb 21
New
Feb 29
First Quarter

Hourly Weather History & Observations

Time (EST) Temp. Windchill Dew Point Humidity Pressure Visibility Wind Dir Wind Speed Gust Speed Precip Events Conditions
12:53 AM 28.9 °F - 21.9 °F 75% 29.99 in 10.0 mi Calm Calm - N/A   Clear
1:53 AM 27.0 °F - 23.0 °F 85% 29.98 in 10.0 mi Calm Calm - N/A   Clear
2:53 AM 26.1 °F - 21.0 °F 81% 29.97 in 10.0 mi Calm Calm - N/A   Clear
3:53 AM 25.0 °F - 21.0 °F 85% 29.99 in 10.0 mi Calm Calm - N/A   Clear
4:53 AM 25.0 °F - 21.0 °F 85% 29.99 in 10.0 mi Calm Calm - N/A   Clear
5:53 AM 24.1 °F - 19.9 °F 84% 30.02 in 10.0 mi Calm Calm - N/A   Clear
6:53 AM 24.1 °F - 19.9 °F 84% 30.05 in 10.0 mi Calm Calm - N/A   Clear
7:53 AM 27.0 °F - 21.9 °F 81% 30.06 in 10.0 mi Calm Calm - N/A   Clear
8:53 AM 37.9 °F - 30.0 °F 73% 30.08 in 10.0 mi Calm Calm - N/A   Clear
9:53 AM 46.0 °F 42.5 °F 27.0 °F 47% 30.08 in 10.0 mi NW 6.9 mph - N/A   Partly Cloudy
10:53 AM 46.9 °F - 26.1 °F 44% 30.10 in 10.0 mi WNW 12.7 mph 19.6 mph N/A   Clear
11:53 AM 48.9 °F - 25.0 °F 39% 30.09 in 10.0 mi NNW 10.4 mph - N/A   Clear
12:53 PM 48.9 °F - 24.1 °F 38% 30.06 in 10.0 mi North 11.5 mph 17.3 mph N/A   Clear
1:53 PM 50.0 °F - 24.1 °F 36% 30.06 in 10.0 mi NW 11.5 mph - N/A   Clear
2:53 PM 48.9 °F - 23.0 °F 36% 30.08 in 10.0 mi NNW 9.2 mph 17.3 mph N/A   Clear
4:53 PM 46.0 °F 43.1 °F 24.1 °F 42% 30.12 in 10.0 mi NNW 5.8 mph - N/A   Clear
5:53 PM 42.1 °F 39.2 °F 23.0 °F 47% 30.15 in 10.0 mi WNW 4.6 mph - N/A   Partly Cloudy
6:53 PM 39.0 °F - 24.1 °F 55% 30.18 in 10.0 mi Calm Calm - N/A   Mostly Cloudy
7:53 PM 36.0 °F - 23.0 °F 59% 30.19 in 10.0 mi Calm Calm - N/A   Mostly Cloudy
8:53 PM 34.0 °F - 25.0 °F 70% 30.20 in 10.0 mi Calm Calm - N/A   Overcast
9:53 PM 33.1 °F - 23.0 °F 66% 30.22 in 10.0 mi Calm Calm - N/A   Partly Cloudy
10:53 PM 30.9 °F 27.5 °F 24.1 °F 76% 30.23 in 10.0 mi North 3.5 mph - N/A   Clear
11:53 PM 34.0 °F 31.0 °F 23.0 °F 64% 30.25 in 10.0 mi NNW 3.5 mph - N/A   Clear